This is the latest recevied weather packets stored in our database for station/object KE8WMS. If no packets are shown the sender has not sent any weather packets the latest 1 day(s).
| Time | Temp. | Humidity | Pressure | Rain* | Wind** | Luminosity | Snow |
|---|---|---|---|---|---|---|---|
| 1778014017 | 11.67° C | 98% | 1004 hPa | 4.32 mm | 1.34 m/s, 17° | 22 W/m² | - |
| 1778013715 | 12.78° C | 98% | 1003.7 hPa | 6.1 mm | 1.79 m/s, 336° | 31 W/m² | - |
| 1778013412 | 13.89° C | 98% | 1003.6 hPa | 6.1 mm | 0.89 m/s, 338° | 15 W/m² | - |
| 1778013108 | 13.89° C | 98% | 1003.6 hPa | 4.83 mm | 0.45 m/s, 250° | 28 W/m² | - |
| 1778012804 | 13.89° C | 98% | 1003.8 hPa | 3.05 mm | 0.45 m/s, 228° | 32 W/m² | - |
| 1778012500 | 13.89° C | 98% | 1003.5 hPa | 3.05 mm | 0.45 m/s, 237° | 33 W/m² | - |
| 1778012197 | 13.89° C | 98% | 1003.6 hPa | 3.56 mm | 0 m/s | 86 W/m² | - |
| 1778011895 | 13.89° C | 97% | 1003.6 hPa | 3.05 mm | 0 m/s | 67 W/m² | - |
| 1778011593 | 13.89° C | 97% | 1003.4 hPa | 4.32 mm | 0 m/s | 72 W/m² | - |
| 1778011289 | 13.89° C | 97% | 1003.5 hPa | 4.83 mm | 0 m/s | 75 W/m² | - |
| 1778010985 | 13.89° C | 97% | 1003.5 hPa | 3.05 mm | 0 m/s | 84 W/m² | - |
| 1778010683 | 13.89° C | 96% | 1003.5 hPa | 3.05 mm | 0 m/s | 65 W/m² | - |
| 1778010380 | 13.89° C | 96% | 1003.7 hPa | 4.83 mm | 0.45 m/s, 203° | 71 W/m² | - |
| 1778010076 | 13.89° C | 96% | 1003.8 hPa | 6.1 mm | 0 m/s | 48 W/m² | - |
| 1778009773 | 13.89° C | 95% | 1003.8 hPa | 7.87 mm | 0.45 m/s, 242° | 47 W/m² | - |
| 1778009470 | 14.44° C | 94% | 1004 hPa | 6.6 mm | 0 m/s | 35 W/m² | - |
| 1778009169 | 14.44° C | 94% | 1003.9 hPa | 1.78 mm | 0 m/s | 47 W/m² | - |
| 1778008865 | 14.44° C | 93% | 1003.8 hPa | 1.27 mm | 0.45 m/s, 231° | 77 W/m² | - |
| 1778008564 | 14.44° C | 92% | 1003.8 hPa | 3.05 mm | 0 m/s | 65 W/m² | - |
| 1778008261 | 14.44° C | 91% | 1003.6 hPa | 3.05 mm | 0 m/s | 76 W/m² | - |
| 1778007956 | 14.44° C | 90% | 1003.6 hPa | 3.05 mm | 0 m/s | 58 W/m² | - |
| 1778007652 | 15° C | 88% | 1003.8 hPa | 1.78 mm | 0 m/s | 64 W/m² | - |
| 1778007349 | 15° C | 86% | 1003.7 hPa | 0 mm | 0.45 m/s, 228° | 78 W/m² | - |
| 1778007045 | 15.56° C | 83% | 1003.6 hPa | 0 mm | 0.45 m/s, 274° | 32 W/m² | - |
| 1778006742 | 16.11° C | 81% | 1003.8 hPa | 0 mm | 0.89 m/s, 164° | 39 W/m² | - |
* Rain latest hour (hover to see other rain measurements)
** Current wind speed in m/s (hover to see current wind gust speed)